CAPE
3608 3726 3744 3638 3696 3674 3635 3700 3888 4025 3716 3316 3176 2948 2749 2766 3028 2958 3216 3114 2965 2731 2879 3250 3645 3790 3323 3195 3060 3391 3963 3942 4135 4302 4426 4386 4265 3819 3625 3906 3665 3469 2820 2298 1828 2099 2086 1538 1434 1873 1844 1645 1528 1487 1243 1384 1399 1183 1081 1400 1177 1292 1174 1193 1223 1250 1368 1190 984 806 658 926 784 726 996 693 1250 600 818 753 1641 748 1112 1130 799
4000 3735 3940 3814 3446 3610 3379 3491 3853 3727 3398 3136 2898 2952 3140 3054 2968 3220 3154 3232 3184 2861 2744 2562 3286 3847 3830 3732 3547 3499 4028 4146 4095 4150 4388 4524 4430 3973 3587 3907 3789 3612 3220 2730 2332 2038 2433 1910 1537 1560 1893 1713 1607 1299 1248 954 1090 877 955 865 958 1012 1150 1126 1020 1175 1052 1514 834 607 690 934 1132 368 564 710 1217 857 837 997 1038 1235 946 753 930
3942 4117 4101 3912 3602 3602 3726 3792 3762 3526 3092 2817 2391 2328 2944 3332 3199 3302 3060 2819 3190 3114 3116 2492 2726 3670 3962 4076 4066 3773 3979 3987 3856 4010 4427 4474 4408 3974 3435 3685 3810 3706 3503 2998 2707 2418 2377 2386 1796 1458 1608 1736 1616 1351 1136 1204 995 928 900 749 882 875 1227 1161 1148 906 944 1348 1416 988 567 812 476 1001 483 832 997 1419 978 1130 969 611 611 686 642
3945 4141 4165 3954 3866 3945 4086 4035 3414 3126 3165 2952 2389 1870 1958 2759 3252 3152 3067 2752 3156 3220 3307 3168 3112 3435 3894 4066 4144 3803 3789 4011 3772 3705 4004 4329 4446 4378 3828 3641 3751 3771 3621 3182 2804 2655 2481 2514 2122 1491 1324 1568 1650 1515 1287 1215 1400 1292 1067 988 997 1133 1311 1184 1215 1213 1154 936 1455 1080 1075 613 896 793 1495 1244 702 862 1046 1238 1044 887 787 839 674
3962 4076 3968 3600 3626 3858 3891 3953 3869 3694 3230 2936 2872 2286 2103 2268 2753 2820 2728 2439 2696 3431 3318 3552 3854 3897 3757 4072 4351 4282 3858 3930 3894 3578 3791 4147 4387 4365 4040 3724 3717 3839 3751 3406 2991 2817 2679 2494 2415 1994 1552 1467 1735 1512 1328 1321 1172 1494 1294 1216 1152 1235 1364 1581 1154 1254 1466 1282 1112 1348 1721 1165 1084 937 720 917 1091 997 1244 836 1032 963 838 505 372
3836 4123 4211 4168 3977 4001 3755 3565 3789 3750 3154 2554 2764 2406 1980 2396 2683 3085 3013 2785 2662 2871 3658 3441 3750 4277 4021 3901 4150 4387 4190 3928 3901 3778 3613 3946 4242 4310 4148 3754 3648 3895 3827 3582 3328 2977 2819 2658 2509 2369 1968 1672 1682 1593 1465 1366 1254 1238 1408 1281 1176 1288 1366 1718 1746 1290 1193 1397 1400 1417 1569 1423 1344 1218 965 633 1056 959 883 1284 1124 1094 1328 1265 564
4095 4292 4165 3774 3994 3943 3834 3698 3830 3606 3480 3088 2769 2704 2255 1930 2096 2689 3042 2978 2713 2362 3131 3683 3550 4108 4418 4124 3937 4102 4272 4094 3910 3972 3940 3815 4072 4366 4134 3967 3616 3752 3868 3630 3378 3124 2910 2826 2664 2571 2368 2044 1770 1706 1584 1448 1364 1278 1428 1483 1298 1317 1444 1453 2000 1772 1384 1191 1257 1274 1579 1405 1174 1443 1444 1283 885 1018 1222 954 1045 1259 1153 1317 1428
4085 4381 4515 4152 3954 4015 4097 3888 3782 3543 3466 3448 3306 2941 2523 2413 2320 2580 3436 3590 3159 2658 2540 3546 3841 3747 4279 4346 4264 4083 4225 4285 4235 4172 4157 4091 4053 4386 4420 4314 3822 3680 3742 3791 3566 3144 2976 2920 2794 2720 2602 2449 2042 1882 1779 1604 1481 1419 1419 1575 1597 1466 1474 1468 1498 1654 1710 1437 1221 1092 980 1350 1322 1008 1760 1312 1238 1146 1083 1285 1186 1224 1380 1497 1271
3969 4234 4571 4374 4126 4105 4304 4100 3798 3802 3822 3672 3525 3300 3018 2806 2746 2750 3278 3528 3364 3044 2799 2674 3689 3792 3864 4409 4508 4306 4140 4196 4200 4308 4375 4357 4188 4249 4523 4434 4252 3913 3746 3692 3707 3455 3072 2894 2907 2882 2846 2638 2245 1904 1839 1662 1604 1468 1525 1564 1649 1616 1633 1612 1530 1475 1548 1478 1419 1276 1300 986 1150 1438 1124 1401 996 925 1123 922 962 1346 1642 1688 1813
3934 4101 4524 4589 4460 4423 4394 4365 4078 4010 3932 3822 3710 3562 3310 3107 2901 2955 2959 3277 3589 3798 3477 2680 2942 4069 4067 4431 4732 4573 4242 4206 3985 4016 4068 4325 4229 3899 4139 4409 4301 4023 3898 3765 3732 3688 3220 3010 2971 2834 2759 2649 2467 2071 1758 1656 1501 1525 1595 1580 1560 1662 1690 1634 1665 1569 1506 1474 1398 1364 1141 1228 1042 1114 1253 1159 1302 1248 1328 1337 1037 1237 1452 1602 1947
3949 3960 4474 4744 4716 4724 4668 4670 4548 4222 4000 3854 3897 3675 3427 3297 3080 3122 3070 3000 3236 4048 3948 3436 2548 3269 4163 4314 4703 4739 4529 4238 3926 3824 3934 3922 4159 4061 3835 4327 4425 4174 3878 3831 3752 3654 3471 3258 3099 3051 2948 2840 2626 2438 2061 1660 1563 1430 1460 1528 1490 1598 1621 1615 1582 1602 1524 1457 1403 1251 1136 1031 1046 1004 1023 1110 1154 1380 1197 1424 1383 1346 1347 1259 999
4000 4036 4634 5016 4951 4949 4855 4982 5035 4669 4172 3976 4087 4004 3583 3366 3398 3359 3250 3146 3263 3731 4160 4016 3457 2609 3570 4312 4399 4620 4698 4260 4044 4082 3942 3871 3805 4002 3847 3893 4284 4293 3914 3570 3669 3610 3594 3592 3321 3057 3046 2975 2859 2694 2452 2160 1868 1593 1432 1482 1455 1417 1460 1491 1446 1509 1552 1486 1423 1279 1042 1050 1078 976 971 892 971 1170 1426 1419 1393 1380 1241 1068 1068
4400 4461 4854 5239 5258 5224 5146 5227 5283 5078 4608 4117 4105 4328 4052 3599 3493 3505 3415 3427 3386 3631 4214 4288 4160 3677 3048 4079 4558 4716 4805 4486 4261 4178 4060 3982 4007 3920 4137 3873 3738 4057 3994 3572 3246 3407 3485 3480 3467 3222 2971 2987 3010 2879 2700 2515 2325 2087 1754 1477 1475 1408 1393 1396 1302 1392 1499 1510 1432 1328 1135 1036 1115 1134 990 943 1026 1018 1369 1315 1392 1616 1652 1395 1239
4944 4667 4993 5393 5432 5470 5516 5516 5445 5252 4995 4527 4214 4430 4458 4096 3586 3370 3472 3724 3752 3881 4013 4377 4377 4332 3933 3763 4226 4697 4931 4736 4491 4304 4082 3921 3978 3844 3990 4116 3930 3868 4095 4022 3466 3201 3454 3486 3296 3134 2978 3059 2862 2907 2783 2674 2538 2371 2148 1868 1623 1427 1315 1328 1318 1302 1378 1501 1500 1389 1321 1172 1096 1149 1219 1098 1240 1046 1326 1265 1377 1526 1346 929 947
5383 5056 5121 5554 5657 5691 5846 6017 6089 5872 5524 4938 4584 4574 4814 4702 4209 3530 3328 3636 3849 4023 4065 4144 4486 4468 4348 4098 3929 4266 4750 4806 4736 4540 4225 3989 3810 3804 3664 3951 3949 4114 4240 4281 4066 3538 3346 3481 3426 3176 2993 3090 3025 3104 2961 2702 2654 2552 2365 2134 1898 1667 1502 1369 1305 1333 1281 1268 1477 1472 1433 1320 1195 1436 1613 1310 1088 1369 1464 1361 1378 1361 1580 1398 1174
5078 5362 5137 5552 5786 5903 6085 6241 6294 6056 5965 5499 4934 4799 5069 5229 4888 4276 3608 3433 3750 4229 4357 4133 4179 4411 4541 4391 3921 3856 4121 4445 4675 4634 4472 4167 3902 3762 3550 3842 3796 4028 4284 4191 4241 4224 3882 3515 3397 3385 3143 2921 3031 2943 3034 2855 2667 2600 2482 2270 2069 1828 1622 1482 1382 1216 1226 1217 1133 1271 1321 1391 1316 1365 1390 1485 1411 1808 1690 1580 1717 1643 1437 1176 848
4535 5604 5090 5235 5642 6098 6257 6374 6348 6278 6117 5801 5393 5141 5285 5551 5320 4835 4331 4075 4112 4341 4410 4312 4257 4287 4400 4573 4473 4136 3970 3698 4162 4573 4555 4407 4111 3809 3602 3610 3872 3825 3852 4112 4264 4306 4266 3989 3613 3515 3516 3199 2842 2906 2882 2939 2761 2612 2485 2351 2148 1874 1664 1570 1483 1402 1263 1089 951 912 996 1012 1023 1080 1009 830 1758 1707 1366 1132 1184 1548 1332 1116 882
4520 5568 5257 5114 5416 5988 6463 6535 6256 6070 6227 6163 5674 5437 5478 5466 5424 5184 4728 4268 3907 4287 4469 4532 4533 4538 4343 4467 4592 4620 4625 4117 3519 3711 4326 4482 4359 4111 3734 3562 3842 3872 3697 3702 3948 4307 4434 4139 3896 3799 3685 3571 3077 2802 2830 2800 2908 2784 2478 2353 2195 1926 1727 1594 1621 1450 1404 1301 1120 991 792 660 888 891 787 775 1316 1379 1333 1062 998 966 941 852 750
4428 5301 5393 5074 5119 5745 6442 6520 6373 6208 6289 6171 5901 5771 5542 5467 5398 5553 4941 4497 4080 4284 4521 4654 4775 4764 4552 4524 4407 4534 4634 4482 4064 3735 3615 4032 4255 4222 4071 3795 3792 3906 3825 3745 3696 3810 4199 4202 4084 3898 3821 3664 3442 3020 2795 2701 2802 2967 2638 2372 2203 1942 1784 1620 1672 1470 1411 1350 1234 1133 1013 816 681 703 682 719 1159 1274 1156 1155 843 778 644 516 497
4554 5242 5602 5318 5382 5859 6130 6394 6366 6026 6088 6301 5971 5910 5707 5430 5517 5374 5157 4623 4407 4214 4289 4632 5026 5097 4817 4488 4074 4258 4511 4643 4244 4056 3926 3731 3841 4068 4094 3958 3770 3860 3931 3901 3842 3765 3752 3998 4110 4142 3968 3661 3491 3341 3053 2702 2599 2963 2886 2594 2347 2146 1952 1723 1676 1523 1422 1347 1236 1139 1106 980 778 606 663 564 775 1232 1068 1130 726 595 479 340 191
5053 5306 5837 5565 5605 5875 5977 6231 6206 5916 6026 6002 5789 5626 5486 5266 5174 5300 5103 4887 4848 4641 4354 4285 4359 4627 4782 4959 4883 4752 4457 4761 4490 4372 4238 4131 3963 3785 3860 3866 3881 3962 4040 3878 3913 3835 3779 3706 3742 3844 4018 4031 3846 3519 3302 3095 2834 2743 2903 2729 2465 2277 2089 1935 1716 1552 1386 1342 1249 1140 1120 1018 870 740 720 645 542 719 742 818 531 392 280 178 42
5258 5249 5837 5672 5574 5570 5573 6003 6057 5844 5893 6070 5945 5683 5566 5528 5317 5489 5263 5297 5186 5184 4935 4528 4224 4066 4324 4549 4856 5114 4878 4401 5300 4478 4277 4181 4142 4130 4067 3942 3917 4177 4111 4122 4133 4015 3867 3809 3819 3648 3560 3817 3952 3832 3606 3299 3217 3057 2734 2645 2480 2263 2054 1954 1822 1582 1416 1329 1233 1163 1172 1106 982 860 747 683 688 601 689 843 541 309 145 86 18
5436 5277 5611 5774 5830 5718 5650 5863 5756 5596 5797 6010 6060 5911 5876 5795 5609 5732 5632 5560 5606 5397 5440 5253 4799 4598 4442 4633 4496 4765 5279 5241 4596 4560 4414 4241 4144 3993 4013 3968 4024 3904 4097 4162 4137 4044 3991 3886 3757 3575 3593 3591 3660 3778 3748 3598 3348 3204 3085 2877 2684 2450 2171 1843 1639 1532 1372 1287 1234 1155 1130 1117 1088 974 847 736 722 745 831 911 522 185 132 82 11
5836 5554 5324 5521 5837 5780 5755 5702 5793 5604 5917 6030 5981 5909 5841 5753 5820 5839 5824 5732 5767 5676 5630 5622 5298 4808 4559 4454 4355 4234 5032 5148 4881 4282 4191 4231 4213 4165 4117 4052 4003 3932 3874 4077 4200 4127 4034 3973 3796 3637 3557 3547 3581 3582 3619 3637 3526 3357 3139 3090 2903 2679 2406 2089 1696 1499 1323 1204 1185 1111 1033 958 888 884 780 704 712 783 861 738 266 169 34 30 73
5969 5801 5575 5556 5731 5290 5474 5422 5594 5630 5573 5883 5819 5812 5777 5631 5821 5840 5904 5821 5715 5624 5707 5487 5507 5176 5074 4756 4601 4568 4200 5312 4971 4231 3990 3475 3456 3608 3621 3858 3883 3876 3846 3819 3783 3924 3868 3731 3509 3594 3578 3512 3459 3401 3360 3346 3379 3384 3300 3113 2917 2821 2568 2266 1901 1486 1340 1210 1115 1036 943 881 820 825 737 748 673 781 762 334 63 6 4 14 29
6042 5886 5757 5686 5468 4904 5164 5076 5383 5266 5554 5612 5928 5911 5712 5546 5551 5849 5907 5734 5581 5639 5594 4988 4902 4874 4831 4422 4413 4551 5198 4896 5044 4193 4173 3703 3605 3572 3596 3686 3658 3674 3655 3693 3747 3760 3697 3583 3315 3228 3262 3404 3361 3372 3320 3248 3128 3111 3168 3128 2947 2714 2553 2356 2100 1708 1339 1245 1040 941 880 821 746 748 754 783 733 585 357 250 91 29 16 25 2
6035 6018 5768 5255 5182 5039 4876 4231 4802 5343 5694 5499 5816 5942 5511 5475 5410 5669 5395 5163 5239 5208 5095 4748 4626 4339 4231 4450 4619 5181 5141 5165 4096 3572 3362 3432 3452 3483 3502 3524 3562 3548 3506 3416 3360 3368 3360 3337 3305 3259 3246 3230 3169 3212 3176 3070 3080 2983 2902 2914 2884 2665 2433 2301 2121 1872 1574 1278 1067 1006 782 766 703 675 644 506 430 363 276 184 52 28 22 1 0
5175 5486 5045 5015 4797 4966 5089 4754 5299 4963 5103 4714 4848 5004 4884 4780 5175 5426 4984 5046 4952 4912 4550 4342 4285 4090 4144 4042 4662 4372 3922 3768 3543 3504 3416 3351 3344 3279 3285 3299 3342 3357 3359 3364 3332 3350 3363 3400 3395 3327 3283 3308 3318 3289 3301 3245 3090 2918 2797 2745 2639 2563 2446 2261 2037 1950 1760 1458 1221 1140 942 810 588 621 482 392 326 296 205 36 17 0 0 0 0
4995 5277 5222 5101 5142 5028 5055 5069 4876 4467 3953 4047 3915 3915 3696 3610 4122 4305 4287 4236 4346 4508 4896 3890 3830 3705 3594 3498 3464 3575 3587 3584 3557 3438 3401 3402 3437 3464 3471 3489 3512 3463 3384 3304 3246 3161 3126 3095 3072 3187 3269 3220 3162 3121 3249 3325 3302 3105 2990 2827 2683 2494 2329 2282 2177 2048 1946 1622 1270 1030 996 909 630 514 419 329 269 245 185 55 0 0 0 0 0
5383 5453 5339 5442 5163 5128 5030 4591 4553 4269 3983 3908 3796 3773 3654 3702 3708 3752 3949 3920 3894 3868 3934 3953 3778 3720 3654 3561 3517 3605 3637 3570 3413 3319 3277 3259 3195 3117 3054 3027 2996 2956 2778 2278 1471 729 591 450 351 681 1349 2006 2556 3058 3078 2970 2975 3042 3102 2956 2766 2598 2441 2293 2165 1828 1762 1542 1255 1020 956 810 819 588 347 277 254 224 153 29 0 0 0 0 0
5238 4288 4064 4697 6204 5339 5620 5636 4367 3793 3707 3603 3540 3656 3846 3875 3881 3727 3616 3650 3664 3638 3639 3670 3683 3691 3660 3658 3589 3404 3330 3199 3054 3001 3004 2834 2182 652 0 0 0 0 0 0 0 0 0 0 0 0 138 850 1319 1591 1663 1930 2571 2888 2813 2813 2832 2712 2547 2395 2229 2127 1679 1214 907 824 814 747 793 727 525 316 254 179 20 0 0 0 0 0 0
4092 3976 3851 3911 4040 3908 3814 3907 3816 3504 3440 3575 3616 3580 3734 3671 3634 3621 3650 3596 3512 3445 3465 3444 3337 3183 3014 2836 2729 2416 2020 1530 679 188 0 0 0 0 0 0 0 0 0 0 0 0 0 0 0 0 0 17 175 781 1200 1362 1337 1464 1768 2201 2396 2502 2528 2426 2072 1972 1594 998 645 644 760 672 401 291 284 107 155 118 65 3 0 0 0 0 0
3340 3350 3454 3714 3906 3849 3810 3772 3802 3628 3585 3619 3536 3388 3381 3398 3489 3436 3207 3153 3219 3256 3182 3032 2564 1979 1197 279 0 0 0 0 0 0 0 0 0 0 0 0 0 0 0 0 0 0 0 0 0 0 0 0 0 0 102 616 1055 1163 1188 1272 1463 1773 2029 2105 1781 1644 1508 1173 540 586 384 295 322 362 282 88 124 92 0 0 0 0 0 0 0
2996 3018 3126 3279 3563 3606 3661 3656 3695 3567 3526 3437 3257 3092 2214 1868 2167 2599 2782 2848 2394 1557 352 0 0 0 0 0 0 0 0 0 0 0 0 0 0 0 0 0 0 0 0 0 0 0 0 0 0 0 0 0 0 0 0 62 341 757 917 946 937 905 1113 1058 1133 1330 1120 678 668 629 279 267 244 225 185 22 92 10 0 0 0 0 0 0 0
2337 2547 2970 3104 3265 3329 3357 3390 3511 3423 3271 2932 2738 1950 1610 1570 1176 1234 1283 1424 1904 1753 1011 471 15 0 0 0 0 0 0 0 0 0 0 0 0 0 0 0 6 3 0 0 0 0 0 0 0 0 0 0 0 0 0 0 24 219 512 642 608 662 645 651 741 873 728 684 568 535 425 276 258 271 48 85 14 19 0 0 0 0 0 0 0
1701 1694 1762 1639 1764 1886 1983 2288 2167 1889 1535 1449 1413 1388 1440 1252 984 725 596 854 1223 975 911 1031 517 2 0 0 0 0 0 0 0 0 0 0 0 0 24 16 0 0 2 6 7 2 1 0 0 0 0 0 0 0 0 0 1 4 19 139 210 231 288 344 500 598 601 688 477 396 326 274 294 156 9 28 1 6 0 8 20 0 0 0 0
1156 1041 1037 1291 1323 1292 1323 1381 1483 1454 1196 1164 1069 998 756 888 751 407 357 562 742 537 890 796 647 657 492 38 0 0 0 0 0 0 0 0 0 1 37 29 56 70 38 13 6 7 10 12 11 3 0 1 0 0 0 3 3 3 1 32 45 29 45 48 183 280 483 668 688 358 207 161 175 83 0 1 1 11 48 56 17 1 0 0 0
1352 1170 1367 1372 1417 1481 1454 1350 1044 903 1202 1232 1445 1142 864 749 601 478 438 491 432 551 590 547 170 190 116 65 18 0 0 0 0 0 0 0 0 0 1 24 53 61 9 16 6 8 13 37 62 50 48 47 3 0 0 1 0 7 15 15 10 3 0 6 4 178 160 239 593 481 243 80 102 96 0 11 12 66 72 45 15 0 0 0 0
896 732 755 836 932 1148 937 1015 1031 928 864 751 686 776 680 534 524 529 564 382 430 420 392 354 176 121 133 88 23 0 161 219 73 0 0 1 1 0 1 1 2 4 2 10 8 5 7 10 18 57 44 26 24 66 46 5 4 0 0 0 0 2 0 5 7 0 0 32 236 432 372 141 7 2 31 57 67 95 58 10 2 0 0 0 0
589 609 503 405 647 668 621 689 706 743 704 663 549 569 598 488 451 379 301 385 387 400 213 202 283 431 116 18 3 0 5 81 71 1 0 3 3 1 2 2 5 2 3 2 5 6 5 5 7 6 3 3 1 0 0 0 26 3 8 0 1 4 0 36 47 0 2 8 17 1 2 6 73 82 105 70 33 11 11 15 0 1 0 0 0
508 524 538 258 333 526 543 414 356 420 438 487 398 282 269 368 343 228 165 160 216 231 220 217 503 294 3 0 0 0 0 84 31 2 1 4 4 2 2 3 1 2 1 1 2 5 9 7 4 3 3 0 0 0 0 0 0 0 0 0 5 5 0 2 4 1 0 1 18 77 111 99 77 60 70 36 15 5 9 0 0 0 0 0 0
375 406 404 415 733 340 216 224 203 314 251 193 276 146 123 298 232 216 119 47 15 29 23 151 349 101 0 0 0 0 418 1 1 16 2 1 2 4 4 3 5 8 7 6 9 10 9 7 4 2 2 0 0 0 0 0 0 0 0 0 0 0 0 0 7 31 41 40 49 52 44 57 58 46 27 10 7 13 9 3 0 0 0 0 0
482 390 435 383 260 116 89 81 192 64 85 29 142 262 335 259 113 184 118 38 15 42 130 132 180 348 87 0 17 0 58 0 2 7 4 0 1 1 3 6 6 4 4 3 5 13 12 4 4 2 2 1 0 0 0 0 0 0 0 0 0 0 2 0 11 34 62 74 76 77 83 68 33 15 11 12 16 13 1 0 0 0 0 0 0
342 297 284 163 111 106 157 70 21 80 114 229 177 164 150 134 70 112 99 99 65 48 29 50 51 101 199 908 449 388 16 0 0 2 8 2 1 0 2 4 3 4 2 4 5 22 12 5 7 14 14 7 4 1 0 8 15 16 22 21 10 34 48 57 70 77 91 92 82 70 47 24 20 23 22 19 17 8 8 4 0 0 0 0 0
147 143 71 32 42 36 4 39 6 7 14 10 3 2 4 3 7 13 23 47 37 37 22 19 11 4 12 74 136 24 25 9 2 0 2 3 2 3 3 2 4 11 6 3 4 10 11 4 7 12 14 20 32 11 13 14 8 37 44 52 48 69 76 79 66 66 81 70 51 51 41 30 32 25 22 13 18 18 2 0 0 0 0 0 0
1 1 2 3 1 10 3 0 0 0 0 0 0 0 0 0 0 0 0 0 0 2 1 2 3 0 0 0 1 6 6 12 2 0 1 1 7 18 72 228 9 2 1 0 0 1 0 1 1 1 10 10 12 16 18 13 11 9 6 8 14 39 30 43 64 72 68 61 66 61 54 53 51 45 29 19 19 0 0 0 0 0 0 0 0
10 5 1 2 1 3 5 5 1 0 0 0 0 0 1 1 0 0 0 0 0 0 1 0 1 0 0 0 0 2 15 14 6 4 1 1 5 6 3 11 16 6 0 0 0 0 0 0 0 0 0 0 0 0 0 0 11 14 15 25 36 49 61 63 67 71 61 51 52 73 68 53 53 32 0 0 0 0 0 0 0 0 0 0 0
0 0 0 0 0 0 0 4 8 5 2 1 1 1 1 1 1 1 1 0 0 0 0 0 0 0 0 0 0 0 0 0 0 0 3 2 0 0 1 3 36 44 30 14 4 0 0 0 0 0 0 0 0 0 0 0 0 0 0 2 13 22 20 24 28 12 10 6 2 3 19 27 2 12 1 0 0 0 0 0 0 0 0 0 0
0 0 0 0 0 0 0 0 0 0 0 2 2 0 0 1 0 0 0 0 1 1 0 0 0 1 0 0 0 0 0 0 0 0 0 0 0 2 1 0 0 43 52 4 4 12 5 0 0 0 0 0 0 0 0 0 0 0 0 0 0 0 0 0 13 15 8 0 6 6 3 0 0 0 0 0 0 0 0 0 0 0 0 0 0
0 0 0 0 0 0 0 0 0 0 0 1 2 1 0 0 0 0 0 0 1 0 2 3 2 2 3 1 1 0 1 0 0 0 0 0 0 3 6 11 13 17 21 24 8 8 9 11 6 0 0 0 0 0 0 0 0 0 0 0 0 0 0 0 0 0 0 0 0 0 0 0 0 0 0 0 0 0 0 0 0 0 0 0 3
0 0 0 0 0 0 0 0 0 0 0 0 0 0 0 0 0 0 0 0 0 0 2 1 2 4 2 5 5 3 0 0 0 0 0 0 0 0 0 0 26 16 13 0 2 0 4 8 4 0 0 0 0 0 0 0 0 0 0 0 0 0 0 0 0 0 0 0 0 0 0 0 0 0 0 0 0 0 0 0 0 0 0 0 0
Wind_Speed
14 13 14 13 14 14 13 12 12 12 12 12 13 14 14 14 15 14 15 14 15 15 14 16 18 18 18 18 18 17 17 17 18 18 18 18 15 13 12 15 14 12 13 14 13 11 13 11 10 11 13 15 15 16 18 20 22 23 22 23 23 21 20 16 13 12 10 12 13 16 20 23 22 20 21 24 26 26 26 28 30 31 32 33 35
13 14 14 14 15 15 15 14 13 12 12 13 13 15 15 15 16 17 16 17 17 17 17 17 18 20 20 20 19 18 19 18 19 18 18 19 18 14 11 14 15 13 13 14 14 12 13 13 12 12 13 14 15 17 18 21 23 22 22 22 23 23 20 17 14 13 13 14 15 13 15 22 21 24 23 23 27 27 28 28 29 30 30 30 32
14 15 14 14 15 15 15 14 14 14 14 13 13 14 15 15 16 16 16 17 18 17 19 20 19 20 20 21 22 20 20 20 19 18 18 19 20 17 13 12 15 15 14 14 15 14 14 14 15 14 14 15 16 17 18 19 22 23 23 21 21 21 21 19 16 14 14 15 19 19 19 18 21 24 24 24 24 28 29 28 30 30 31 32 32
14 15 14 14 15 15 15 14 16 16 15 14 14 14 15 15 17 16 16 16 18 19 19 21 21 21 20 21 22 21 21 21 20 19 18 19 20 20 16 13 14 15 14 14 15 15 16 15 16 17 16 17 17 17 18 18 19 22 23 22 20 20 19 21 19 16 15 15 17 20 22 22 21 22 24 25 25 24 25 27 29 29 30 32 34
14 15 15 15 16 15 16 16 16 16 16 15 16 17 17 17 18 18 18 18 19 21 21 21 22 23 21 21 21 22 22 21 21 20 18 19 21 22 19 14 13 14 14 14 15 16 17 17 18 19 18 17 18 18 18 19 19 20 22 21 21 19 17 19 21 19 17 17 16 18 20 22 22 23 24 25 25 26 26 27 28 29 30 29 30
14 15 15 14 14 15 15 15 16 18 17 17 18 18 18 18 19 20 20 20 19 20 23 22 22 23 23 23 22 22 22 22 22 21 20 20 22 23 22 16 13 13 14 14 15 15 16 18 19 20 20 19 19 19 19 20 19 19 20 20 20 20 19 17 20 21 20 18 18 17 19 21 22 23 26 27 27 29 29 29 30 29 31 32 33
14 15 15 14 13 13 15 15 16 17 18 18 18 19 20 19 19 20 21 20 20 19 21 23 22 22 22 23 23 22 22 22 21 21 20 21 22 24 23 18 13 12 12 14 15 15 15 16 18 19 20 20 19 20 20 20 20 19 19 20 20 19 20 19 19 21 22 22 20 19 18 22 24 23 26 29 30 30 32 34 33 34 34 35 34
15 15 15 13 13 14 14 16 16 16 17 19 20 20 21 20 19 19 20 19 19 19 19 22 23 22 21 22 23 22 22 22 22 21 22 22 23 23 21 17 13 11 11 12 13 14 15 15 17 19 20 20 20 20 21 21 20 19 20 20 20 20 19 20 20 21 23 24 24 23 23 23 26 26 27 30 30 31 33 35 36 37 37 37 38
16 16 16 14 14 15 16 16 16 17 18 20 20 20 20 20 19 18 18 19 18 19 18 19 22 22 21 21 21 21 20 20 21 22 23 23 22 20 19 16 13 12 12 13 14 14 15 15 16 17 19 21 24 23 23 24 22 22 22 22 21 21 20 20 21 23 23 25 25 25 26 28 27 30 31 33 35 35 36 36 36 38 38 39 40
19 18 17 16 17 17 18 18 19 19 19 20 20 20 20 20 19 17 17 18 19 18 17 16 18 22 21 21 20 19 18 17 19 23 22 21 20 17 15 15 14 13 14 14 15 16 17 17 17 19 20 22 24 26 27 27 26 25 25 25 24 24 24 24 24 25 27 28 28 29 30 30 32 32 33 34 36 37 38 40 40 39 39 40 40
18 18 18 19 19 20 20 19 20 20 20 21 21 20 19 19 18 17 16 17 18 18 17 16 15 17 20 19 18 16 15 14 19 21 21 21 19 17 14 14 15 15 15 16 16 18 19 19 18 21 22 22 24 28 28 30 30 28 29 29 28 28 28 28 28 29 30 30 32 33 33 34 35 35 36 37 39 41 41 41 42 43 43 44 42
17 16 17 18 20 20 20 21 21 21 21 21 22 21 20 18 17 16 17 17 17 17 17 15 14 13 15 16 15 13 12 13 18 20 21 22 21 18 17 15 16 17 17 18 18 19 20 21 22 21 24 25 25 25 27 31 33 32 31 32 32 32 32 32 32 32 33 34 35 36 37 38 39 39 39 41 42 43 44 44 44 45 46 47 46
19 18 17 18 18 19 19 20 21 21 21 22 22 22 21 18 16 16 17 17 17 16 15 16 14 12 10 12 13 11 9 13 17 20 21 22 23 21 16 17 17 17 18 19 19 20 20 21 22 23 23 30 28 26 27 28 32 36 35 35 34 35 33 33 33 33 34 35 37 38 40 41 41 42 43 44 46 45 47 47 47 47 48 49 49
22 21 20 19 18 19 19 19 19 20 21 22 22 22 21 18 17 17 17 17 16 15 15 14 14 12 10 9 9 10 10 12 17 19 20 22 22 21 16 17 17 16 17 19 19 20 21 21 21 21 22 27 28 28 27 28 30 31 33 34 33 34 35 34 33 34 35 35 37 37 40 42 42 43 46 47 49 50 50 49 51 51 51 50 51
24 24 23 22 21 20 20 20 19 21 22 22 22 21 19 19 18 18 17 17 17 16 15 14 14 13 12 11 8 7 8 15 18 20 20 22 22 19 17 18 17 17 18 19 20 21 22 22 23 23 24 26 29 31 31 30 30 31 33 34 34 35 36 34 33 34 34 35 37 37 39 42 42 44 47 49 50 52 54 53 54 53 53 52 51
25 26 24 24 23 21 20 20 20 20 21 21 20 19 19 19 19 18 17 16 16 16 15 13 13 13 13 12 10 8 7 15 18 20 23 24 26 21 20 20 19 19 20 22 23 24 25 26 27 27 27 27 31 37 36 33 31 32 33 33 33 35 36 35 36 35 35 36 37 40 42 42 44 45 47 50 52 55 57 57 56 56 57 56 54
26 28 26 26 25 23 20 19 19 20 20 20 19 18 18 19 18 18 16 15 16 16 15 14 14 14 14 13 12 10 8 13 19 19 21 25 26 24 25 25 23 22 21 24 25 26 27 28 29 30 32 32 34 40 41 43 37 35 34 35 36 37 35 36 38 39 38 37 38 40 44 45 46 48 50 52 56 57 59 58 57 59 59 57 56
28 30 28 28 27 24 21 19 18 18 18 17 17 17 17 18 18 18 17 15 14 14 15 16 16 16 15 14 15 13 11 15 22 21 22 25 27 26 27 28 27 26 24 26 27 27 28 30 32 33 34 36 38 42 44 46 42 41 41 40 40 39 37 39 42 41 42 43 42 42 46 52 51 51 51 56 62 61 59 59 59 60 60 59 57
30 31 30 28 26 23 21 19 17 16 16 16 18 18 17 18 18 18 16 15 14 15 17 18 18 19 18 17 17 16 15 18 26 27 29 30 30 28 30 31 30 30 30 30 30 29 29 30 34 35 35 38 43 44 45 46 43 45 47 48 46 43 42 46 46 47 47 47 46 48 47 50 53 54 53 59 63 62 60 61 61 62 61 58 55
31 33 33 30 27 23 20 18 16 15 16 17 18 18 19 19 18 18 17 17 17 17 18 19 19 20 20 19 19 19 19 20 29 32 34 34 37 33 32 32 31 30 32 32 31 31 30 31 35 37 36 38 41 46 48 50 47 46 48 49 49 45 46 51 52 53 53 52 51 53 53 54 53 54 58 58 58 61 62 64 64 65 63 57 52
34 34 35 32 28 22 18 16 15 15 16 17 18 18 18 18 19 19 19 19 20 20 20 20 19 19 20 21 20 22 23 24 29 35 34 35 36 35 32 30 29 30 32 31 31 30 31 33 34 40 42 39 40 45 47 49 49 48 47 47 47 47 51 52 54 58 57 56 55 56 56 56 55 56 58 60 61 61 62 64 65 67 66 60 nan
36 34 34 34 30 23 17 15 15 15 16 18 18 18 19 19 20 20 20 20 21 22 22 22 21 21 22 22 22 24 26 28 28 34 34 34 36 37 32 29 30 32 33 32 33 32 33 35 37 38 44 44 42 46 49 51 51 48 47 47 48 52 54 55 58 59 59 59 57 57 57 57 57 57 58 59 60 61 62 63 64 66 65 nan nan
37 36 35 34 31 23 18 16 16 15 15 16 17 18 19 20 20 21 22 21 21 22 23 24 24 22 22 22 23 24 25 27 29 33 33 36 37 37 35 33 34 37 37 36 36 35 37 38 39 40 45 48 46 47 51 53 54 52 51 53 55 58 59 59 60 62 62 62 60 59 58 58 58 58 59 60 59 61 61 63 65 64 63 nan nan
39 37 36 34 30 24 20 18 17 15 16 18 19 20 20 21 22 23 23 23 23 23 23 24 23 22 22 23 25 26 29 31 35 40 39 38 38 39 38 36 37 40 42 41 40 39 40 41 42 42 45 48 47 47 52 55 55 53 52 55 59 63 62 62 62 64 65 65 62 60 59 59 59 60 61 62 63 64 64 66 67 65 nan nan nan
40 39 37 34 30 25 23 21 19 19 20 22 23 23 23 24 24 24 25 25 25 24 25 26 26 26 27 28 29 31 31 32 34 42 45 45 44 43 41 40 39 41 42 42 41 40 42 43 41 44 46 48 49 50 52 54 55 55 56 56 59 64 63 62 63 66 68 67 64 62 61 60 61 63 66 67 68 70 68 67 nan nan nan nan nan
41 41 39 34 29 26 24 22 23 22 23 24 25 27 27 27 26 27 28 28 27 27 28 29 30 30 31 30 32 33 35 37 37 50 51 52 47 45 42 40 37 35 36 36 31 29 33 35 37 40 45 49 54 58 62 57 57 57 58 60 62 63 63 63 64 67 67 68 69 68 65 65 66 69 72 73 73 72 70 69 nan nan nan nan nan
40 41 39 34 30 28 28 26 25 25 26 27 28 29 30 29 29 30 31 29 30 30 31 32 33 33 33 35 37 38 39 42 50 52 51 50 50 50 50 47 45 43 43 42 38 37 35 38 43 42 42 47 53 58 61 63 64 63 62 63 63 63 63 64 64 66 66 67 70 70 69 70 72 74 74 75 74 72 72 73 nan nan nan nan nan
35 37 37 34 31 31 32 29 29 29 29 29 30 30 30 32 33 34 32 31 32 34 34 35 36 35 36 39 42 47 50 53 52 52 53 52 53 53 53 53 52 53 50 50 49 48 46 45 42 44 47 49 55 60 62 63 65 66 66 66 65 64 64 64 64 65 66 67 69 71 72 72 72 73 75 75 74 74 75 nan nan nan nan nan nan
33 34 36 37 35 35 35 33 34 33 39 43 42 39 32 36 44 43 40 36 38 37 40 44 45 47 49 47 48 51 53 55 54 55 57 57 56 56 57 56 54 53 52 54 54 52 52 51 51 51 51 52 53 57 60 63 64 65 66 66 66 66 66 67 67 68 69 71 72 75 74 73 71 73 74 75 75 76 77 nan nan nan nan nan nan
31 32 34 37 38 38 36 37 35 39 42 42 43 44 47 50 45 46 44 47 54 54 52 48 45 47 53 52 52 55 56 56 59 61 61 61 61 60 57 56 55 54 52 50 56 56 55 55 54 53 52 53 54 55 58 61 64 66 66 65 66 66 66 66 67 69 72 74 77 78 78 75 73 72 72 73 76 77 79 nan nan nan nan nan nan
38 40 41 41 42 41 43 44 46 47 44 43 43 48 47 49 53 54 54 52 57 59 60 61 62 60 57 57 59 66 65 60 57 58 61 62 63 62 nan nan nan nan nan nan nan nan nan nan nan nan 52 52 52 52 54 56 59 61 64 66 66 67 68 69 69 72 75 79 81 81 81 79 76 73 72 72 73 77 nan nan nan nan nan nan nan
39 39 41 43 48 49 48 47 47 46 46 45 46 49 51 51 50 49 49 56 59 61 63 63 63 65 66 63 62 58 59 60 61 62 nan nan nan nan nan nan nan nan nan nan nan nan nan nan nan nan nan nan 50 50 51 54 57 58 59 63 66 68 69 70 72 74 78 81 83 83 82 79 77 76 74 72 72 74 nan nan nan nan nan nan nan
41 42 42 45 47 49 49 49 49 49 48 48 49 51 53 53 53 51 50 50 55 61 62 62 64 65 66 67 nan nan nan nan nan nan nan nan nan nan nan nan nan nan nan nan nan nan nan nan nan nan nan nan nan nan 50 51 54 58 60 62 65 68 67 67 71 75 81 86 85 82 83 83 79 78 78 nan 72 nan nan nan nan nan nan nan nan
43 42 43 45 47 48 50 50 50 51 51 52 52 52 52 53 53 54 53 51 52 53 56 nan nan nan nan nan nan nan nan nan nan nan nan nan nan nan nan nan nan nan nan nan nan nan nan nan nan nan nan nan nan nan nan nan 54 56 58 61 64 67 68 70 73 77 84 88 85 84 84 82 81 78 76 nan nan nan nan nan nan nan nan nan nan
45 48 51 47 46 47 48 49 50 50 51 51 52 53 54 54 54 54 54 55 56 57 58 59 nan nan nan nan nan nan nan nan nan nan nan nan nan nan nan nan nan nan nan nan nan nan nan nan nan nan nan nan nan nan nan nan nan 56 58 62 66 70 74 76 75 79 80 81 81 81 80 79 78 76 nan nan nan nan nan nan nan nan nan nan nan
45 46 48 50 50 50 50 49 50 52 53 54 54 54 53 54 55 57 57 58 58 60 62 62 63 nan nan nan nan nan nan nan nan nan nan nan nan nan nan nan nan nan nan nan nan nan nan nan nan nan nan nan nan nan nan nan nan nan nan 60 63 68 71 70 68 68 72 72 72 72 74 74 73 72 nan nan nan nan nan nan nan nan nan nan nan
47 48 49 50 51 52 52 53 54 55 55 56 56 56 57 57 59 60 60 60 61 62 63 63 63 64 66 nan nan nan nan nan nan nan nan nan nan nan nan nan nan nan nan nan nan nan nan nan nan nan nan nan nan nan nan nan nan nan nan nan nan nan nan nan 54 59 61 60 61 66 71 70 69 nan nan nan nan nan nan nan nan nan nan nan nan
49 50 51 52 52 53 53 54 56 58 58 58 58 58 59 61 62 63 63 63 62 62 62 63 63 63 63 nan nan nan nan nan nan nan nan nan nan nan nan nan nan nan nan nan nan nan nan nan nan nan nan nan nan nan nan nan nan nan nan nan nan nan nan nan nan 43 67 67 61 57 58 nan 69 nan nan nan nan nan nan nan nan nan nan nan nan
52 54 56 54 53 53 54 54 55 56 58 59 60 60 61 61 63 63 63 63 62 62 61 62 63 63 64 nan nan nan 60 64 nan nan nan nan nan nan nan nan nan nan nan nan nan nan nan nan nan nan nan nan nan nan nan nan nan nan nan nan nan nan nan nan nan nan nan nan 75 57 50 56 nan nan nan nan nan nan nan nan nan nan nan nan nan
53 53 54 57 56 57 56 56 56 58 58 60 61 61 61 62 62 62 62 62 61 60 61 62 64 67 67 nan nan nan nan nan nan nan nan nan nan nan nan nan nan nan nan nan nan nan nan nan nan nan nan nan nan nan nan nan nan nan nan nan nan nan nan nan nan nan nan nan nan nan nan nan nan nan 70 nan nan nan nan nan nan nan nan nan nan
54 54 54 56 57 57 58 58 59 60 60 60 60 61 62 62 62 62 61 61 61 61 61 63 67 68 nan nan nan nan nan nan nan nan nan nan nan nan nan nan nan nan nan nan nan nan nan nan nan nan nan nan nan nan nan nan nan nan nan nan nan nan nan nan nan nan nan nan nan nan 65 nan nan nan nan nan nan nan nan nan nan nan nan nan nan
54 54 55 55 57 58 58 60 60 60 59 59 60 60 60 62 62 62 61 nan nan nan nan 63 66 65 nan nan nan nan 62 nan nan nan nan nan nan nan nan nan nan nan nan nan nan nan nan nan nan nan nan nan nan nan nan nan nan nan nan nan nan nan nan nan nan nan nan nan nan nan nan nan nan nan nan nan nan nan nan nan nan nan nan nan nan
59 59 58 58 59 59 nan nan 62 nan nan nan 64 62 61 62 63 62 63 nan nan nan 63 61 62 63 nan nan nan nan nan nan nan nan nan nan nan nan nan nan nan nan nan nan nan nan nan nan nan nan nan nan nan nan nan nan nan nan nan nan nan nan nan nan nan nan nan nan nan nan nan nan nan nan nan nan nan nan nan nan nan nan nan nan nan
62 63 62 63 64 64 64 nan nan nan 65 67 66 66 66 67 nan 66 nan nan nan nan nan nan nan 59 60 60 58 59 nan nan nan nan nan nan nan nan nan nan nan nan nan nan nan nan nan nan nan nan nan nan nan nan nan nan nan nan nan nan nan nan nan nan nan nan nan nan nan nan nan nan nan nan nan nan nan nan nan nan nan nan nan nan nan
64 64 nan nan nan nan nan nan nan nan nan nan nan nan nan nan nan nan nan nan nan nan nan nan nan nan nan nan 59 nan nan nan nan nan nan nan nan nan nan nan nan nan nan nan nan nan nan nan nan nan nan nan nan nan nan nan nan nan nan nan nan nan nan nan nan nan nan nan nan nan nan nan nan nan nan nan nan nan nan nan nan nan nan nan nan
nan nan nan nan nan nan nan nan nan nan nan nan nan nan nan nan nan nan nan nan nan nan nan nan nan nan nan nan nan nan nan nan nan nan nan nan nan nan nan 42 nan nan nan nan nan nan nan nan nan nan nan nan nan nan nan nan nan nan nan nan nan nan nan nan nan nan nan nan nan nan nan nan nan nan nan nan nan nan nan nan nan nan nan nan nan
nan nan nan nan nan nan nan nan nan nan nan nan nan nan nan nan nan nan nan nan nan nan nan nan nan nan nan nan nan nan nan nan nan nan nan nan nan nan nan nan nan nan nan nan nan nan nan nan nan nan nan nan nan nan nan nan nan nan nan nan nan nan nan nan nan nan nan nan nan nan nan nan nan nan nan nan nan nan nan nan nan nan nan nan nan
nan nan nan nan nan nan nan nan nan nan nan nan nan nan nan nan nan nan nan nan nan nan nan nan nan nan nan nan nan nan nan nan nan nan nan nan nan nan nan nan nan nan nan nan nan nan nan nan nan nan nan nan nan nan nan nan nan nan nan nan nan nan nan nan nan nan nan nan nan nan nan nan nan nan nan nan nan nan nan nan nan nan nan nan nan
nan nan nan nan nan nan nan nan nan nan nan nan nan nan nan nan nan nan nan nan nan nan nan nan nan nan nan nan nan nan nan nan nan nan nan nan nan nan nan nan nan nan nan nan nan nan nan nan nan nan nan nan nan nan nan nan nan nan nan nan nan nan nan nan nan nan nan nan nan nan nan nan nan nan nan nan nan nan nan nan nan nan nan nan nan
nan nan nan nan nan nan nan nan nan nan nan nan nan nan nan nan nan nan nan nan nan nan nan nan nan nan nan nan nan nan nan nan nan nan nan nan nan nan nan nan nan nan nan nan nan nan nan nan nan nan nan nan nan nan nan nan nan nan nan nan nan nan nan nan nan nan nan nan nan nan nan nan nan nan nan nan nan nan nan nan nan nan nan nan nan
nan nan nan nan nan nan nan nan nan nan nan nan nan nan nan nan nan nan nan nan nan nan nan nan nan nan nan nan nan nan nan nan nan nan nan nan nan nan nan nan nan nan nan nan nan nan nan nan nan nan nan nan nan nan nan nan nan nan nan nan nan nan nan nan nan nan nan nan nan nan nan nan nan nan nan nan nan nan nan nan nan nan nan nan nan
Wind_Direction
306 301 301 304 303 308 309 304 306 296 299 297 296 296 295 296 299 299 292 296 296 300 296 293 296 299 302 300 307 307 309 311 313 317 323 328 331 324 315 318 321 313 309 317 325 323 328 336 343 341 341 348 349 350 347 345 343 348 348 347 349 348 346 340 332 330 316 313 311 315 327 324 333 335 332 333 330 336 336 333 329 331 331 332 332
303 299 298 299 308 310 311 309 307 298 305 302 300 296 296 296 294 293 299 298 298 303 303 300 293 299 301 298 299 299 303 305 306 308 316 322 329 323 314 310 316 318 310 312 317 320 319 329 337 342 340 347 345 348 347 345 343 343 344 345 344 345 343 341 343 332 335 325 327 326 320 330 329 340 338 337 334 338 339 336 335 334 335 334 335
301 289 292 295 304 303 304 305 305 309 317 308 317 311 301 296 294 295 300 301 300 302 301 305 300 299 300 298 299 299 298 302 301 302 308 316 323 326 319 307 310 318 319 316 316 313 319 323 332 335 336 344 346 346 346 346 342 342 341 338 340 340 337 339 336 343 339 334 329 332 335 329 332 337 343 341 341 341 344 342 341 340 340 342 338
296 291 291 295 298 295 299 300 315 320 323 311 318 316 306 299 295 299 301 299 299 301 299 302 303 303 303 300 300 301 298 298 300 300 304 312 317 322 319 309 303 311 319 318 316 313 318 319 325 331 335 340 343 343 345 347 342 338 339 336 338 340 335 333 337 334 336 342 333 337 333 335 334 336 340 340 345 344 341 342 344 342 342 343 344
298 298 302 307 306 301 306 310 315 319 320 312 315 312 308 304 297 305 305 308 305 300 302 300 301 304 305 303 301 301 302 300 301 303 301 306 313 316 318 311 301 303 314 318 319 317 317 319 320 322 328 335 336 340 341 345 343 336 337 335 336 338 335 331 335 336 337 340 338 334 333 334 334 336 338 338 340 341 340 344 342 343 346 349 346
300 296 301 302 299 309 308 311 315 320 317 315 314 310 307 301 300 302 307 311 310 308 307 306 302 304 305 304 303 301 300 301 302 304 307 306 309 312 314 313 305 300 309 319 322 322 318 318 316 318 323 329 332 333 334 340 338 337 333 332 331 331 335 329 329 335 337 339 334 337 335 334 332 335 336 338 337 338 340 340 341 342 343 345 347
288 293 299 304 295 306 310 311 307 314 307 304 302 304 307 310 311 308 308 314 318 319 313 311 306 305 304 304 305 303 301 303 302 303 304 304 305 310 314 315 306 296 302 315 323 325 323 317 315 315 319 322 325 326 327 330 331 332 329 326 327 330 331 332 327 329 333 334 334 333 332 332 333 334 333 333 336 336 335 339 340 339 342 343 344
287 286 290 292 293 303 302 302 302 300 297 297 300 303 308 307 306 302 303 313 320 323 321 314 308 309 306 306 304 302 302 302 302 302 301 302 302 307 313 311 308 299 295 305 316 322 323 322 320 317 317 316 318 317 319 322 320 323 321 317 321 327 330 331 330 328 328 331 332 330 331 328 327 332 327 329 332 335 336 333 336 335 337 339 341
287 289 288 287 287 290 286 288 288 289 294 296 300 302 302 301 301 301 301 309 311 322 322 319 312 312 311 308 306 305 305 305 301 302 302 305 305 310 314 313 306 298 294 300 308 315 320 323 321 320 316 318 322 318 318 316 313 316 314 313 316 320 322 324 327 327 328 330 331 329 328 330 329 329 333 331 335 337 330 330 331 330 331 334 337
293 294 297 291 282 283 286 285 286 288 291 294 296 298 296 297 300 303 304 306 307 313 316 317 316 316 316 314 311 309 308 302 308 319 314 305 310 312 312 313 309 300 296 298 305 313 320 320 321 330 324 322 319 319 317 317 319 313 309 310 313 314 317 320 321 323 323 327 329 327 330 329 330 332 333 332 329 327 328 328 330 328 326 329 329
297 299 298 292 286 286 286 287 285 291 293 292 292 295 296 292 294 296 301 307 310 310 314 320 322 315 319 319 320 317 312 306 321 322 325 329 320 320 321 313 311 309 306 303 305 309 312 316 314 319 323 317 318 318 314 313 314 317 318 319 317 316 315 318 319 319 321 323 323 324 326 327 327 328 330 327 326 326 328 327 327 326 326 325 328
304 296 290 288 287 289 288 287 287 290 289 292 292 293 292 291 291 296 303 310 308 306 314 320 319 319 315 324 330 325 323 330 331 334 336 339 336 327 325 320 315 317 317 316 309 308 311 315 317 314 314 316 309 311 313 314 314 316 318 319 322 326 323 319 316 316 318 319 320 323 323 323 323 324 324 323 322 322 323 324 324 324 324 324 323
298 293 289 291 291 290 287 289 290 289 290 291 289 289 293 296 297 300 310 308 306 312 314 318 322 326 324 321 335 336 337 343 339 344 345 345 345 339 326 328 328 328 327 328 325 321 320 320 320 318 314 323 318 313 311 312 317 323 319 320 321 322 322 323 321 316 313 316 318 319 320 318 319 321 321 317 315 318 318 321 320 320 319 319 320
295 297 290 290 293 291 288 288 288 289 287 287 289 293 297 302 305 304 303 303 311 317 319 320 319 323 331 331 328 339 347 342 344 348 350 351 350 344 335 334 336 338 337 337 335 338 336 332 329 327 322 315 320 322 321 319 312 309 309 305 308 314 315 318 319 320 314 310 310 313 313 313 314 313 314 312 313 316 316 318 317 317 317 319 317
288 297 293 288 289 292 293 290 286 284 287 289 292 297 298 297 303 304 308 313 316 317 319 321 320 323 333 337 331 333 333 342 339 346 348 349 349 335 334 332 329 330 332 334 335 335 333 330 330 330 323 318 318 327 327 328 323 317 315 317 314 306 304 304 302 300 303 302 304 305 305 306 307 306 306 310 312 311 311 313 314 314 312 310 311
287 296 298 293 292 290 291 291 286 286 287 289 293 296 293 295 301 302 304 308 307 307 310 314 321 322 321 325 331 340 325 329 334 339 344 342 340 318 325 327 322 320 323 326 324 322 323 324 322 320 317 318 320 329 326 320 321 321 321 318 313 306 305 312 317 313 306 303 300 301 301 302 303 306 305 305 307 305 305 307 308 308 308 310 313
290 294 301 299 294 290 287 290 290 289 289 289 294 295 291 292 296 295 301 300 302 308 310 311 305 307 311 310 319 315 314 310 320 329 333 336 320 303 307 317 315 315 316 313 314 315 315 317 315 312 314 315 319 321 323 315 312 315 313 311 307 304 305 307 315 317 314 310 309 304 302 305 309 310 310 310 305 304 303 306 309 307 307 309 310
285 289 299 303 298 291 287 287 289 290 288 292 292 286 285 285 293 294 302 303 304 300 295 291 291 294 304 308 306 304 303 306 312 319 322 320 314 294 304 310 309 310 311 310 305 303 310 320 317 313 313 311 315 317 322 315 310 309 308 306 303 302 304 303 297 302 310 308 304 304 302 297 298 300 306 307 306 304 304 307 305 303 304 306 307
283 287 294 301 300 292 285 286 287 290 291 285 280 280 285 288 287 285 293 297 297 286 288 292 294 292 300 302 307 308 304 303 308 317 322 321 316 305 308 304 310 312 310 307 305 303 304 308 317 316 312 312 316 315 319 317 313 311 309 304 302 307 311 306 301 299 299 297 298 295 294 297 296 294 299 305 305 304 303 303 301 300 301 302 304
276 276 282 292 295 288 281 284 286 289 288 280 275 278 279 284 293 295 295 297 296 297 297 297 301 298 298 302 304 305 307 306 304 320 322 324 326 314 308 308 313 315 307 303 302 304 307 305 306 313 317 314 312 314 319 320 316 312 309 308 309 316 310 304 305 302 301 304 304 302 302 298 299 298 298 299 302 302 301 299 297 296 297 299 301
271 274 277 285 292 288 278 281 288 285 280 277 276 279 283 288 290 291 297 297 296 299 303 300 302 301 300 301 303 305 305 307 303 314 317 318 319 313 304 308 309 302 297 297 297 300 303 304 303 307 315 316 314 313 315 318 319 311 310 312 316 313 304 300 302 305 300 303 304 301 300 300 301 301 301 301 301 301 300 299 297 295 296 298 nan
268 272 276 282 288 287 280 272 277 271 269 269 273 277 278 282 284 287 289 290 295 296 296 295 297 298 297 296 297 294 296 303 297 304 310 311 309 315 301 301 298 292 292 292 292 295 298 297 299 305 309 312 314 312 314 314 318 309 311 315 312 306 302 298 294 295 296 297 300 300 301 302 302 302 302 302 302 301 301 299 297 296 299 nan nan
264 268 271 278 282 280 268 269 271 263 260 265 270 273 274 279 281 283 287 287 290 293 293 293 292 293 291 289 286 284 282 286 297 293 305 309 311 311 316 308 306 299 296 296 296 295 292 294 297 303 306 308 313 315 311 313 308 310 316 310 309 306 301 295 293 293 294 296 298 299 300 301 301 301 301 300 300 299 299 296 296 299 299 nan nan
258 262 266 271 274 270 262 263 267 262 262 265 269 273 276 277 279 280 282 284 286 290 293 293 291 291 292 289 285 281 281 282 291 300 299 307 306 312 319 323 317 304 302 299 297 296 294 294 296 302 303 305 309 311 308 306 305 314 314 310 307 303 297 296 295 295 295 295 297 298 299 298 298 298 299 296 295 295 295 293 294 297 nan nan nan
252 256 260 266 266 265 259 256 261 262 263 266 269 272 275 276 276 276 277 280 283 288 292 293 293 290 289 288 285 283 286 290 287 297 304 307 312 316 319 321 320 315 302 299 299 298 299 302 303 303 305 307 309 309 306 309 314 314 314 312 302 294 296 296 296 294 295 298 300 299 297 296 296 295 293 293 291 290 291 291 nan nan nan nan nan
246 250 255 259 261 261 259 260 261 261 262 262 265 267 271 274 274 275 276 278 282 288 291 292 292 293 292 293 294 295 294 290 289 280 280 284 286 288 289 290 290 287 285 284 273 267 272 282 294 301 304 304 301 300 300 306 311 314 315 312 299 297 295 295 294 294 296 297 298 298 296 294 293 292 292 292 292 294 294 293 nan nan nan nan nan
242 244 250 252 252 251 255 256 258 258 259 259 261 264 268 273 276 278 281 285 289 292 292 291 292 291 290 289 291 292 292 286 277 278 278 281 283 287 290 290 293 292 289 291 294 292 295 294 293 295 295 303 306 308 309 310 308 308 302 303 302 300 298 297 296 295 294 294 295 294 292 291 289 290 293 294 294 293 294 292 nan nan nan nan nan
243 242 247 247 246 248 252 261 258 254 256 258 261 267 270 273 279 280 283 287 290 290 289 290 291 290 288 284 280 278 278 278 277 276 278 280 281 281 284 287 286 288 289 289 291 294 296 297 300 300 300 298 299 296 296 298 303 304 301 303 303 304 305 305 301 295 295 294 293 291 289 289 290 289 289 291 292 292 292 nan nan nan nan nan nan
243 243 242 244 244 246 250 252 255 255 251 247 246 247 254 268 267 267 266 267 268 274 279 275 274 274 275 275 276 276 275 276 277 280 281 283 282 284 284 284 282 282 282 278 281 286 289 293 297 300 301 301 300 301 302 302 301 301 303 304 304 303 301 299 300 299 298 295 292 290 289 288 287 286 286 287 288 289 289 nan nan nan nan nan nan
247 245 244 245 245 246 249 253 256 258 257 257 256 254 249 252 262 272 268 265 264 266 271 275 273 273 275 273 272 274 275 277 279 281 285 287 289 290 290 288 287 286 285 282 285 289 293 295 297 298 299 300 302 304 306 305 304 304 304 306 304 303 302 301 300 299 297 294 290 289 288 287 286 286 285 285 284 285 287 nan nan nan nan nan nan
243 238 236 235 238 244 244 247 249 256 260 261 262 265 264 257 251 258 269 271 272 272 272 272 268 266 271 275 275 278 278 276 276 278 281 283 287 289 nan nan nan nan nan nan nan nan nan nan nan nan 299 299 301 303 304 304 304 304 304 303 303 304 303 301 300 297 294 290 289 288 287 287 287 284 282 281 282 282 nan nan nan nan nan nan nan
246 243 240 240 239 240 244 248 251 257 259 261 263 265 265 265 262 255 258 269 272 272 272 271 271 270 269 271 272 274 272 267 267 268 nan nan nan nan nan nan nan nan nan nan nan nan nan nan nan nan nan nan 303 303 301 301 301 301 301 301 302 301 301 300 298 294 289 286 284 283 283 283 282 280 278 276 276 277 nan nan nan nan nan nan nan
244 244 244 242 242 243 246 249 252 254 258 261 264 265 266 267 268 268 264 260 266 272 271 271 271 271 271 270 nan nan nan nan nan nan nan nan nan nan nan nan nan nan nan nan nan nan nan nan nan nan nan nan nan nan 303 302 302 302 302 302 301 300 300 300 297 290 285 283 280 279 278 278 279 279 278 nan 274 nan nan nan nan nan nan nan nan
241 242 243 244 243 244 245 247 249 251 252 254 255 256 260 265 269 271 271 270 268 266 267 nan nan nan nan nan nan nan nan nan nan nan nan nan nan nan nan nan nan nan nan nan nan nan nan nan nan nan nan nan nan nan nan nan 306 306 307 307 305 302 301 297 290 287 285 284 282 279 278 277 277 277 277 nan nan nan nan nan nan nan nan nan nan
246 247 247 246 247 247 247 247 247 249 252 255 257 258 259 258 259 261 264 265 266 267 269 267 nan nan nan nan nan nan nan nan nan nan nan nan nan nan nan nan nan nan nan nan nan nan nan nan nan nan nan nan nan nan nan nan nan 309 310 307 304 301 296 293 293 293 290 285 281 277 274 273 272 271 nan nan nan nan nan nan nan nan nan nan nan
251 250 249 248 246 246 246 247 249 250 251 251 252 255 258 261 262 263 263 264 266 269 270 270 274 nan nan nan nan nan nan nan nan nan nan nan nan nan nan nan nan nan nan nan nan nan nan nan nan nan nan nan nan nan nan nan nan nan nan 307 306 304 296 290 290 292 291 287 281 274 270 268 269 270 nan nan nan nan nan nan nan nan nan nan nan
254 254 253 251 250 250 249 248 248 248 251 254 256 257 258 260 263 264 264 265 267 269 270 271 271 273 273 nan nan nan nan nan nan nan nan nan nan nan nan nan nan nan nan nan nan nan nan nan nan nan nan nan nan nan nan nan nan nan nan nan nan nan nan nan 288 294 296 291 282 277 274 269 265 nan nan nan nan nan nan nan nan nan nan nan nan
247 249 251 251 251 251 251 251 252 252 252 255 257 259 260 261 262 263 265 266 267 268 269 270 269 270 271 nan nan nan nan nan nan nan nan nan nan nan nan nan nan nan nan nan nan nan nan nan nan nan nan nan nan nan nan nan nan nan nan nan nan nan nan nan nan 300 296 280 269 264 265 nan 265 nan nan nan nan nan nan nan nan nan nan nan nan
247 247 249 251 250 251 252 252 252 254 254 254 255 256 259 261 263 263 264 265 265 266 268 271 272 273 275 nan nan nan 280 281 nan nan nan nan nan nan nan nan nan nan nan nan nan nan nan nan nan nan nan nan nan nan nan nan nan nan nan nan nan nan nan nan nan nan nan nan 251 250 258 260 nan nan nan nan nan nan nan nan nan nan nan nan nan
249 249 249 251 251 250 250 250 251 252 252 253 255 256 257 258 259 261 263 265 266 268 269 271 273 275 276 nan nan nan nan nan nan nan nan nan nan nan nan nan nan nan nan nan nan nan nan nan nan nan nan nan nan nan nan nan nan nan nan nan nan nan nan nan nan nan nan nan nan nan nan nan nan nan 242 nan nan nan nan nan nan nan nan nan nan
248 249 249 249 250 250 251 252 252 251 251 253 256 257 258 259 261 262 263 265 267 268 270 272 275 277 nan nan nan nan nan nan nan nan nan nan nan nan nan nan nan nan nan nan nan nan nan nan nan nan nan nan nan nan nan nan nan nan nan nan nan nan nan nan nan nan nan nan nan nan 224 nan nan nan nan nan nan nan nan nan nan nan nan nan nan
252 251 251 251 252 252 254 254 255 255 256 257 257 259 260 262 264 266 267 nan nan nan nan 273 276 280 nan nan nan nan 283 nan nan nan nan nan nan nan nan nan nan nan nan nan nan nan nan nan nan nan nan nan nan nan nan nan nan nan nan nan nan nan nan nan nan nan nan nan nan nan nan nan nan nan nan nan nan nan nan nan nan nan nan nan nan
246 246 247 248 249 250 nan nan 251 nan nan nan 254 254 258 262 264 267 269 nan nan nan 272 273 276 282 nan nan nan nan nan nan nan nan nan nan nan nan nan nan nan nan nan nan nan nan nan nan nan nan nan nan nan nan nan nan nan nan nan nan nan nan nan nan nan nan nan nan nan nan nan nan nan nan nan nan nan nan nan nan nan nan nan nan nan
249 249 249 250 250 249 250 nan nan nan 253 254 256 256 257 258 nan 260 nan nan nan nan nan nan nan 278 280 284 287 285 nan nan nan nan nan nan nan nan nan nan nan nan nan nan nan nan nan nan nan nan nan nan nan nan nan nan nan nan nan nan nan nan nan nan nan nan nan nan nan nan nan nan nan nan nan nan nan nan nan nan nan nan nan nan nan
249 251 nan nan nan nan nan nan nan nan nan nan nan nan nan nan nan nan nan nan nan nan nan nan nan nan nan nan 282 nan nan nan nan nan nan nan nan nan nan nan nan nan nan nan nan nan nan nan nan nan nan nan nan nan nan nan nan nan nan nan nan nan nan nan nan nan nan nan nan nan nan nan nan nan nan nan nan nan nan nan nan nan nan nan nan
nan nan nan nan nan nan nan nan nan nan nan nan nan nan nan nan nan nan nan nan nan nan nan nan nan nan nan nan nan nan nan nan nan nan nan nan nan nan nan 287 nan nan nan nan nan nan nan nan nan nan nan nan nan nan nan nan nan nan nan nan nan nan nan nan nan nan nan nan nan nan nan nan nan nan nan nan nan nan nan nan nan nan nan nan nan
nan nan nan nan nan nan nan nan nan nan nan nan nan nan nan nan nan nan nan nan nan nan nan nan nan nan nan nan nan nan nan nan nan nan nan nan nan nan nan nan nan nan nan nan nan nan nan nan nan nan nan nan nan nan nan nan nan nan nan nan nan nan nan nan nan nan nan nan nan nan nan nan nan nan nan nan nan nan nan nan nan nan nan nan nan
nan nan nan nan nan nan nan nan nan nan nan nan nan nan nan nan nan nan nan nan nan nan nan nan nan nan nan nan nan nan nan nan nan nan nan nan nan nan nan nan nan nan nan nan nan nan nan nan nan nan nan nan nan nan nan nan nan nan nan nan nan nan nan nan nan nan nan nan nan nan nan nan nan nan nan nan nan nan nan nan nan nan nan nan nan
nan nan nan nan nan nan nan nan nan nan nan nan nan nan nan nan nan nan nan nan nan nan nan nan nan nan nan nan nan nan nan nan nan nan nan nan nan nan nan nan nan nan nan nan nan nan nan nan nan nan nan nan nan nan nan nan nan nan nan nan nan nan nan nan nan nan nan nan nan nan nan nan nan nan nan nan nan nan nan nan nan nan nan nan nan
nan nan nan nan nan nan nan nan nan nan nan nan nan nan nan nan nan nan nan nan nan nan nan nan nan nan nan nan nan nan nan nan nan nan nan nan nan nan nan nan nan nan nan nan nan nan nan nan nan nan nan nan nan nan nan nan nan nan nan nan nan nan nan nan nan nan nan nan nan nan nan nan nan nan nan nan nan nan nan nan nan nan nan nan nan
nan nan nan nan nan nan nan nan nan nan nan nan nan nan nan nan nan nan nan nan nan nan nan nan nan nan nan nan nan nan nan nan nan nan nan nan nan nan nan nan nan nan nan nan nan nan nan nan nan nan nan nan nan nan nan nan nan nan nan nan nan nan nan nan nan nan nan nan nan nan nan nan nan nan nan nan nan nan nan nan nan nan nan nan nan